Simultaneous Nadir Overpasses (SNOs) Predictions

Prediction of SNOs over PacNW region [( 10.00, 139.50) to ( 22.70, 165.60)] between NOAA-19 and NPP Satellites:

Table of predicted SNOs over PacNW region for the next 30.0 days since TLE Epoch: 10/11/2013
Index Date (NOAA-19) Time (NOAA-19) NOAA-19 Lat,Lon Date (NPP) Time (NPP) NPP Lat,Lon Distance(km) Time Diff (sec)
1 10/17/2013 03:33:24 10.12, 150.56 10/17/2013 03:36:59 7.94, 146.02 554.33 215
2 10/17/2013 16:09:35 22.04, 146.73 10/17/2013 16:09:24 22.84, 142.84 409.69 11
3 10/18/2013 03:25:58 22.65, 150.28 10/18/2013 03:22:22 23.49, 147.08 340.96 216
4 10/30/2013 02:55:23 20.59, 158.39 10/30/2013 02:55:59 19.66, 154.40 430.01 36
5 10/30/2013 15:31:57 10.38, 154.25 10/30/2013 15:28:26 11.09, 151.15 348.37 211
